sat.trackr.live / text

‹ back to catalog

STARLINK-2568

NORAD 48406 · 2021-038BF

PAYLOAD ACTIVE UNKNOWN

§ Identity

Operator
Country
US
Launch date
2021-05-04
Launch site
AFETR
Launch vehicle
Mass (kg)
RCS (m²)

Purposes: comms

External: N2YO · Heavens-Above · Gunter

§ Orbital elements

Epoch: 2026-05-24T20:22:00.501024Z

Period
94.01 min
Inclination
53.1615°
Eccentricity
0.0001235
Mean motion
15.31705702 rev/d
Perigee alt
469.9 km
Apogee alt
471.6 km
Semi-major
6,848.9 km
B*
1.6549e-4
RAAN
341.6275°
Arg perigee
96.4309°
Mean anomaly
263.6834°
Rev number
27,906

§ Raw data

STARLINK-25681 48406U 21038BF  26144.84861691  .00004774  00000+0  16549-3 0  99952 48406  53.1615 341.6275 0001235  96.4309 263.6834 15.31705702279062

JSON: /api/v1/satellites/48406 · /tle

For live sub-satellite position, see the globe view (requires WebGL).

§ Visibility from observer

Set your observer location to see the next 7 days of passes ≥ 10°. The values pass through the URL so the page stays shareable.

No JS? Fill the form by hand. The geolocation button needs JavaScript.